Regional Weather Roundup
Issued by NWS Boston, MA

Current Version | Previous Version | Text Only | Print | Product List | Glossary Off
Versions: 1 2 3 4 5 6 7 8 9 10 11 12 13 14 15 16 17 18 19 20 21 22 23 24 25 26 27 28 29 30 31 32 33 34 35 36 37 38 39 40 41 42 43 44 45 46 47 48 49 50
000 ASUS41 KBOX 202210 RWRBOX REGIONAL WEATHER ROUNDUP NATIONAL WEATHER SERVICE TAUNTON MA 600 PM EDT THU JUL 20 2017 NOTE: "FAIR" INDICATES FEW OR NO CLOUDS BELOW 12,000 FEET WITH NO SIGNIFICANT WEATHER AND/OR OBSTRUCTIONS TO VISIBILITY. MAZALL-202300- EASTERN MASSACHUSETTS CITY SKY/WX TMP DP RH WIND PRES REMARKS BOSTON CLOUDY 89 67 47 W14G22 29.81F HX 92 BEVERLY CLOUDY 83 71 67 CALM 29.81F LAWRENCE CLOUDY 86 70 58 W7 29.83F HX 90 BEDFORD CLOUDY 86 65 49 W6 29.80F BLUE HILL N/A 85 66 53 W12 29.84F NORWOOD CLOUDY 87 67 51 W12G23 29.81F HX 90 MARSHFIELD PTSUNNY 88 70 55 SW6G12 29.81F HX 92 PLYMOUTH PTSUNNY 86 65 49 SW13 29.84F TAUNTON PTSUNNY 85 66 53 SW8 29.83F NEW BEDFORD MOSUNNY 84 63 49 SW12 29.85S $$ MAZALL-202300- CAPE COD AND THE ISLANDS CITY SKY/WX TMP DP RH WIND PRES REMARKS FALMOUTH MOSUNNY 82 64 54 SW12G18 29.87F HYANNIS MOSUNNY 82 68 62 SW13 29.85F CHATHAM MOSUNNY 80 72 76 SW12G21 29.88S PROVINCETOWN CLOUDY 82 66 58 SW16 29.84F NANTUCKET MOSUNNY 76 72 87 SW12 29.87F MARTHAS VNYRD SUNNY 81 72 74 SW13 29.86F $$ MAZALL-202300- CENTRAL AND WESTERN MASSACHUSETTS CITY SKY/WX TMP DP RH WIND PRES REMARKS WORCESTER PTSUNNY 83 66 56 W6 29.88F FITCHBURG CLOUDY 88 64 44 W5 29.84F ORANGE CLOUDY 84 67 56 W7 29.85F SPRINGFIELD LGT RAIN 85 67 54 NW10 29.83F WESTFIELD CLOUDY 82 65 56 W8G20 29.85F NORTH ADAMS MOSUNNY 78 62 57 W5 29.86F PITTSFIELD CLOUDY 78 65 63 N5 29.88F $$ RIZALL-202300- RHODE ISLAND CITY SKY/WX TMP DP RH WIND PRES REMARKS PROVIDENCE PTSUNNY 87 69 54 SW12 29.85F HX 91 NEWPORT SUNNY 81 72 74 VRB7G17 29.86F BLOCK ISLAND SUNNY 80 75 84 SW14 29.88F WESTERLY SUNNY 84 73 69 SW8 29.87F HX 90 $$ CTZALL-202300- CONNECTICUT CITY SKY/WX TMP DP RH WIND PRES REMARKS BRADLEY INTL HVY RAIN 72 66 81 W6G33 29.87R HARTFORD PTSUNNY 91 67 44 SW7 29.83F HX 94 BRIDGEPORT CLOUDY 87 74 64 S14 29.86S HX 95 DANBURY CLOUDY 85 71 63 SW5 29.89F HX 90 GROTON SUNNY 77 71 82 SW7 29.85F NEW HAVEN MOSUNNY 86 70 58 SW7 29.86F HX 90 CHESTER FAIR 86 70 58 SW5 29.87F HX 90 MERIDEN MOSUNNY 88 69 53 VRB3 29.85F HX 92 WILLIMANTIC PTSUNNY 89 69 51 W6 29.85F HX 93 OXFORD PTSUNNY 86 66 51 W5 29.91S $$ MEZ002-015-021-024-NHZ003-005-008-011-012-014-VTZ005-008-202300- NORTHERN NEW ENGLAND CITY SKY/WX TMP DP RH WIND PRES REMARKS PORTLAND ME CLOUDY 75 66 73 S12 29.80F BANGOR ME CLOUDY 80 64 58 S9 29.80F CONCORD NH CLOUDY 84 58 40 W9 29.82F MANCHESTER NH CLOUDY 86 58 38 W6 29.81F NASHUA NH CLOUDY 85 66 53 VRB5 29.82F PORTSMOUTH NH PTSUNNY 79 67 66 SE9 29.80F JAFFREY NH CLOUDY 82 65 56 W5 29.87F KEENE NH MOSUNNY 82 67 60 CALM 29.85F BURLINGTON VT MOSUNNY 84 58 40 NW10 29.84R MT. WASHINGTON PTSUNNY 57 50 77 W32G38 N/A $$ NYZ052-076-202300- EASTERN NEW YORK CITY SKY/WX TMP DP RH WIND PRES REMARKS ALBANY PTSUNNY 79 60 52 W8 29.86F NEW YORK CITY PTSUNNY 94 62 34 W14 29.85S HX 94 $$ ANZALL-202300- MARINE OBSERVATIONS STATION/POSITION TIME TEMP WIND PRES VSBY WAVE AIR SEA DIR/SP/G HT/PER (UTC) (F) (DEG/KT/KT) (MB) (MI) (FT/S) BOSTON BUOY 2150 74 72 130/ 8/ 10 1009.4F 1/11 BUZZARDS BAY 2100 76 210/ 16/ 17 1011.6F NANTUCKET SOUND 2150 72 1010.9F 1 MASS BAY-STELLWA 2104 73 65 150/ 10/ 10 1009.3F 1/ 6 ISLE OF SHOALS 2100 73 40/ 24/ 27 1009.7F S OF BLOCK IS 2155 74 N/A 3/ 6 $$ ......................KEY......................... SKY/WX - SKY CONDITION/PRESENT WEATHER TMP - TEMPERATURE IN FAHRENHEIT DWPT - DEWPOINT IN FAHRENHEIT RH - RELATIVE HUMIDITY IN PERCENT WIND - DIRECTION AND SPEED IN MPH PRES - MEAN SEA LEVEL PRESSURE IN INCHES OF HG WCI - WIND CHILL INDEX VSB - VISIBILITY IN MILES HX - HEAT INDEX TC - TEMPERATURE IN CELSIUS VRB - VARIABLE WIND DIRECTION N/A - NOT AVAILABLE

USA.gov is the U.S. government's official web portal to all federal, state and local government web resources and services.